STARLINK-34850

Last updated on Tue Sep 16 2025 00:02:08 GMT+0000 (Coordinated Universal Time)

1 65460U 25195C 25257.90322442 -.00544365 00000+0 -33773-2 0 9993 2 65460 53.1562 0.8486 0003446 14.7420 345.3701 15.77758499 2991
UTC large
Height (km)
Speed (km/s)
/
Latitude / Longitude
Inclination (degrees)
Orbital Period (minutes)
Azimuth
Elevation
Range (km)
Doppler Factor

Next 0 passes for location: London (51.5072 / 0.1276)

Sorry there are no passes over London.